SILO ALERT LOG
| Silo ID | Alert Type | Alert Message | Silo Type | Points | Depth (mm) | Strength | Temperature (°C) | Humidity (%) | Height (mm) | Volume (㎥) | Weight (t) | Flag | Time |
|---|---|---|---|---|---|---|---|---|---|---|---|---|---|
| WJWJR01 | Humidity | 습도센서 측정값이 80% 초과 | 평 | 68 | 7773 | 1863 | 20.2 | 85 | -133 | -15.079 | 0 | 0 | 2026-05-28 02:25:53.000 |
| WJWJR05 | Humidity | 습도센서 측정값이 80% 초과 | 평 | 67 | 7702 | 2112 | 20.9 | 80.2 | 27 | 3.09 | 1.954 | 0 | 2026-05-28 01:26:14.000 |
| WJWJR01 | Humidity | 습도센서 측정값이 80% 초과 | 평 | 67 | 7761 | 1871 | 20.5 | 84.5 | -121 | -13.751 | 0 | 0 | 2026-05-28 01:25:53.000 |
| WJWJR01 | Humidity | 습도센서 측정값이 80% 초과 | 평 | 66 | 7790 | 1859 | 20.9 | 84 | -150 | -16.977 | 0 | 0 | 2026-05-28 00:25:53.000 |
| WJWJR01 | Humidity | 습도센서 측정값이 80% 초과 | 평 | 67 | 7758 | 1842 | 21.2 | 83.1 | -118 | -13.353 | 0 | 0 | 2026-05-27 23:25:54.000 |
| WJWJR01 | Humidity | 습도센서 측정값이 80% 초과 | 평 | 67 | 7754 | 1881 | 21.6 | 81.8 | -114 | -12.924 | 0 | 0 | 2026-05-27 22:25:51.000 |
| WJWJR01 | Humidity | 습도센서 측정값이 80% 초과 | 평 | 66 | 7753 | 1872 | 22 | 80.6 | -113 | -12.8 | 0 | 0 | 2026-05-27 21:25:52.000 |
| WJWJR05 | Humidity | 습도센서 측정값이 80% 초과 | 평 | 68 | 7721 | 2094 | 21.9 | 80.8 | 8 | 0.946 | 0.598 | 0 | 2026-05-27 11:26:10.000 |
| WJWJR01 | Humidity | 습도센서 측정값이 80% 초과 | 평 | 63 | 7796 | 1709 | 23 | 81.8 | -156 | -17.662 | 0 | 0 | 2026-05-27 11:25:53.000 |
| WJWJR05 | Humidity | 습도센서 측정값이 80% 초과 | 평 | 67 | 7701 | 2102 | 20.9 | 82.3 | 28 | 3.255 | 2.058 | 0 | 2026-05-27 10:26:12.000 |
| WJWJR01 | Humidity | 습도센서 측정값이 80% 초과 | 평 | 63 | 3775 | 1394 | 21.7 | 84.1 | 3864 | 437.084 | 276.324 | 29 | 2026-05-27 10:25:47.000 |
| WJWJR05 | Humidity | 습도센서 측정값이 80% 초과 | 평 | 67 | 7704 | 2117 | 20.3 | 83.4 | 25 | 2.919 | 1.845 | 0 | 2026-05-27 09:26:12.000 |
| WJWJR01 | Humidity | 습도센서 측정값이 80% 초과 | 평 | 52 | 5858 | 2348 | 20.5 | 87.2 | 1781 | 201.508 | 127.393 | 0 | 2026-05-27 09:26:08.000 |
| WJWJR05 | Humidity | 습도센서 측정값이 80% 초과 | 평 | 67 | 7698 | 2089 | 20.3 | 83.5 | 31 | 3.614 | 2.285 | 0 | 2026-05-27 08:26:13.000 |
| WJWJR01 | Humidity | 습도센서 측정값이 80% 초과 | 평 | 70 | 7644 | 2065 | 19.9 | 87.2 | -4 | -0.531 | 0 | 0 | 2026-05-27 08:25:53.000 |
| WJWJR05 | Humidity | 습도센서 측정값이 80% 초과 | 평 | 68 | 7700 | 2100 | 20.3 | 83.7 | 29 | 3.332 | 2.106 | 0 | 2026-05-27 07:26:20.000 |
| WJWJR01 | Humidity | 습도센서 측정값이 80% 초과 | 평 | 70 | 7644 | 2061 | 19.8 | 87.2 | -4 | -0.549 | 0 | 0 | 2026-05-27 07:25:55.000 |
| WJWJR05 | Humidity | 습도센서 측정값이 80% 초과 | 평 | 67 | 7720 | 2089 | 20.4 | 83.5 | 9 | 1.13 | 0.714 | 0 | 2026-05-27 06:26:15.000 |
| WJWJR01 | Humidity | 습도센서 측정값이 80% 초과 | 평 | 70 | 7641 | 2067 | 19.9 | 86.9 | -1 | -0.179 | 0 | 0 | 2026-05-27 06:25:54.000 |
| WJWJR05 | Humidity | 습도센서 측정값이 80% 초과 | 평 | 68 | 7706 | 2086 | 20.7 | 83 | 23 | 2.658 | 1.68 | 0 | 2026-05-27 05:26:17.000 |
[첫 페이지] [59] [60] [61] [62] 63 [64] [65] [66] [마지막 페이지]